Regional Weather Roundup
Issued by NWS Kansas City/Pleasant Hill, MO

Home | Current Version | Previous Version | Graphics & Text | Print | Product List | Glossary Off
Versions: 1 2 3 4 5 6 7 8 9 10 11 12 13 14 15 16 17 18 19 20 21 22 23 24 25 26 27 28 29 30 31 32 33 34 35 36 37 38 39 40 41 42 43 44 45 46 47 48 49 50

000
ASUS43 KEAX 230711
RWREAX

WEATHER ROUNDUP FOR EASTERN KANSAS AND NORTHWEST MISSOURI
NATIONAL WEATHER SERVICE KANSAS CITY/PLEASANT HILL MO
200 AM CDT SAT MAY 23 2015

KSZ040-057-103>105-MOZ028-029-037-043-230800-
...KANSAS CITY METROPOLITAN AREA...

CITY           SKY/WX    TMP DP  RH WIND       PRES   REMARKS
K.C. INTL      CLOUDY    61  52  72 S9        30.20S
K.C. DOWNTOWN  CLOUDY    63  50  62 SE6       30.19F
LEES SUMMIT    CLOUDY    62  50  64 S8        30.21S
OLATHE - IXD   CLOUDY    60  52  74 SE9       30.20S
OLATHE - OJC   CLOUDY    60  52  74 SE8       30.19S
LAWRENCE       CLOUDY    60  52  74 SE7       30.19S

$$

MOZ001>008-011>017-020>025-030>033-038>040-044>046-053-054-230800-
...NORTHERN AND CENTRAL MISSOURI...

CITY           SKY/WX    TMP DP  RH WIND       PRES   REMARKS
ST. JOSEPH     CLOUDY    60  51  72 SE7       30.20F
MOSBY          CLOUDY    59  54  82 CALM      30.21S
WARRENSBURG    CLOUDY    59  52  77 SE5       30.22S
WHITEMAN AFB   CLOUDY    61  53  76 SE3       30.21F
CLINTON        CLOUDY    63  55  77 CALM      30.23S
SEDALIA        CLOUDY    62  54  74 SE6       30.24S
WARSAW         NOT AVBL
CHILLICOTHE      N/A     59  55  87 CALM      30.23F
KIRKSVILLE     PTCLDY    52  52 100 SE3       30.25R

$$

MOZ041-047>049-056>058-063>065-088>090-097-230800-
...EASTERN AND SOUTHERN MISSOURI...

CITY           SKY/WX    TMP DP  RH WIND       PRES   REMARKS
ST. LOUIS INTL CLOUDY    64  52  64 E3        30.25S
SPIRIT OF STL  CLOUDY    59  57  93 CALM      30.24S
COLUMBIA       CLOUDY    61  52  72 SE6       30.25R
JEFFERSON CITY CLOUDY    62  53  72 E3        30.24S
ROLLA          CLOUDY    60  51  72 S7        30.24S
OSAGE BEACH    CLOUDY    61  52  72 SE3       30.24S
SPRINGFIELD    CLOUDY    60  48  64 SE12      30.22S
BRANSON        CLOUDY    57  50  77 CALM      30.24S
JOPLIN         CLOUDY    61  51  70 SE9       30.19F
WEST PLAINS    CLOUDY    58  49  72 CALM      30.27S

$$

IAZ060-094-KSZ022-034>040-054-083-096-NEZ052-066-093-230800-
...KANSAS...SOUTHEAST NEBRASKA AND IOWA...

CITY           SKY/WX    TMP DP  RH WIND       PRES   REMARKS
TOPEKA         LGT RAIN  60  54  80 E6        30.18F
MANHATTAN      CLOUDY    58  51  78 E5        30.17F
EMPORIA        LGT RAIN  56  54  93 S3        30.18R
CHANUTE        CLOUDY    59  54  83 SE5       30.18S
WICHITA        CLOUDY    55  54  96 S8        30.16S FOG
OMAHA          CLOUDY    60  49  66 SE10      30.19S
LINCOLN        CLOUDY    58  47  66 S7        30.19S
FALLS CITY     CLOUDY    56  51  84 SE6       30.18F
LAMONI           N/A     59  52  77 S3        30.22S
DES MOINES     MOCLDY    60  48  64 CALM      30.22S

$$



USA.gov is the U.S. government's official web portal to all federal, state and local government web resources and services.